Regional Weather Roundup
Issued by NWS

Home | Current Version | Previous Version | Graphics & Text | Print | Product List | Glossary On
Versions: 1 2 3 4 5 6 7 8 9 10 11 12 13 14 15 16 17 18 19 20 21 22 23 24 25 26 27 28 29 30 31 32 33 34 35 36 37 38 39 40 41 42 43 44 45 46 47 48 49 50
000
ASUS45 KSLC 261510
RWRUT

UTAH REGIONAL WEATHER ROUNDUP
NATIONAL WEATHER SERVICE SALT LAKE CITY UT
800 AM MST THU FEB 26 2015

UTZ001>011-023>025-261600-

NORTHERN UTAH

CITY           SKY/WX    TMP DP  RH WIND       PRES   REMARKS
BRIGHAM CITY   CLOUDY    30  22  70 NW3       29.97R
HILL AFB       MOCLDY    33  17  52 E10       29.94S WCI  25
LOGAN          CLOUDY    27  21  78 CALM      29.96S
OGDEN          CLOUDY    34  20  56 S8        29.94S WCI  27
PROVO AIRPORT  CLOUDY    30  19  64 CALM      29.97S
SALT LAKE CITY CLOUDY    36  22  56 W5        29.96R WCI  32
VERNAL         CLOUDY    26  17  68 CALM      30.04R
WENDOVER       CLOUDY    39  27  60 NW9       29.98S WCI  33
HEBER CITY     CLOUDY    27  19  74 CALM      29.96S
WEST JORDAN    CLOUDY    37  21  52 SW3       29.97R

$$

UTZ012>022-026-027-261600-

SOUTHERN/CENTRAL UTAH

CITY           SKY/WX    TMP DP  RH WIND       PRES   REMARKS
BLANDING       CLOUDY    29  18  65 N7        30.08R WCI  21
BRYCE CANYON   CLOUDY    20  12  71 NW6       29.98S WCI  12
CEDAR CITY     CLOUDY    27  20  75 E6        29.94S WCI  20
DELTA          CLOUDY    28  17  62 N5        29.97R WCI  23
HANKSVILLE     CLOUDY    30  27  86 CALM      30.03S
MILFORD        CLOUDY    30  20  66 W5        29.96S WCI  25
MOAB/CYNLANDS  MOSUNNY   32  18  56 CALM      30.01R
PRICE          CLOUDY    29  18  63 E5        29.98R WCI  24
ST GEORGE      CLOUDY    39  32  75 CALM      29.96S
KANAB            N/A     30  25  80 NE3       30.01R

$$

REGIONAL REPORTS     COLORADO/ARIZONA

CITY           SKY/WX    TMP DP  RH WIND       PRES   REMARKS
CRAIG, CO      CLOUDY    14   9  80 CALM      30.05R
GRAND JUNCTION MOSUNNY   27  19  72 SE5       30.04R WCI  22
RIFLE          MOSUNNY   21  14  74 NE6       30.06S WCI  13
MONTROSE       SUNNY     14  10  84 SE8       30.06R WCI   3
CORTEZ         SUNNY     22  16  78 NE7       30.01S WCI  13
PAGE, AZ       CLOUDY    41  27  57 E5        29.96F
GRAND CANYON   CLOUDY    28  23  81 VRB5      30.01R WCI  23
KINGMAN        PTCLDY    43  28  55 CALM      29.93S
FLAGSTAFF      CLOUDY    26  18  71 CALM      30.01R

$$

REGIONAL REPORTS    NEVADA/IDAHO/WYOMING

CITY           SKY/WX    TMP DP  RH WIND       PRES   REMARKS
LAS VEGAS, NV  PTCLDY    50  30  46 SW7       29.88R
ELY            CLOUDY    33  19  56 W3        29.98S
ELKO           CLOUDY    33  31  92 SW9       30.02R WCI  25
POCATELLO, ID  CLOUDY    28  19  69 N5        30.00S WCI  23
BURLEY         CLOUDY    30  20  66 NW3       30.00R
EVANSTON, WY   CLOUDY    19  15  84 E12       29.93R WCI   7
ROCK SPRINGS   CLOUDY    14   9  80 E5        29.99  WCI   6

$$



USA.gov is the U.S. government's official web portal to all federal, state and local government web resources and services.